Terminal Aerodrome Forecast
Issued by NWS Aberdeen, SD

Home | Current Version | Previous Version | Text Only | Print | Product List | Glossary On
Versions: 1 2 3 4 5 6 7 8 9 10 11 12 13 14 15 16 17 18 19 20 21 22 23 24 25 26 27 28 29 30 31 32 33 34 35 36 37 38 39 40 41 42 43 44 45 46 47 48 49 50
999
FTAK31 PAFA 191733
TAFABR
TAF
PABR 191733Z 1918/2018 34010KT P6SM FEW020 BKN030
     FM200200 33008KT P6SM SCT035 BKN050
     FM201000 21006KT P6SM FEW007 BKN025 OVC050=

USA.gov is the U.S. government's official web portal to all federal, state and local government web resources and services.